パンスターズ彗星

C/2020 U5 ( PanSTARRS )

English version
Home page
Updated on November 26, 2022

---------------------------------------------------------------------

・ プロフィール

発見日 2020年10月22日
発見光度 20.4等
発見者 Pan-STARRS 1 telescope (Haleakala)

・ 写真集

・ 軌道要素

Epoch 2022 Aug. 9.0 TT = JDT 2459800.5
T 2022 Apr. 27.91620 TT                                 Rudenko
q   3.7559653            (2000.0)            P               Q
z  +0.0002248      Peri.   75.42223     +0.04192050     +0.31874217
 +/-0.0000006      Node   107.33330     -0.12796248     -0.93822909
e   0.9991555      Incl.   97.26987     +0.99089267     -0.13464622
From 778 observations 2020 Sept. 25-2022 Sept. 4, mean residual 0".5.

・ 星図

・ 光度変化

        m1 = 8.0 + 5 logΔ + 10.0 log r(t + 120)

---------------------------------------------------------------------

軌道要素はM.P.E.C. 2022-R139に掲載されたものです。
星図はステラナビゲータ Ver.10 (アストロアーツ) で作成したものです。
光度グラフはComet for Windowsで作成したものです。

---------------------------------------------------------------------

Copyright(C) Seiichi Yoshida (comet@aerith.net). All rights reserved.